Torna al catalogo

FENGYUN 1C DEB

AttivoPO
NORAD 31566·DEBRIS·🇨🇳 China

Lanciato May 10, 1999 da Taiyuan Satellite Launch Center

Loading…

Prossimi Passaggi (prossime 24 ore)

TLE

AggiornatoSource: Space-Track

Epoca: Sep 13, 2026, 22:28 UTC

1 31566U 99025BZH 26256.93679078  .00003264  00000-0  10429-2 0  9999
2 31566  98.9359 332.4241 0023207 259.5905 158.5631 14.40238447  3463

Traccia FENGYUN 1C DEB in tempo reale con AllMySat

Download on the App Store